Wind_Speed
14 22 28 29 29 28 29 31 29 28 28 26 25 23 21 20 20 19 17 17 19 19 17 17 16 15 17 19 18 16 15 16 16 15 15 14 12 12 12 12 14 16 17 17 16 14 13 12 10 9 11 13 13 12 10 9 10 9 9 10 11 10 9 8 7 7 7 6 6 6 5 4 4 3 2 3 5 7 9 8 7 5 4 4 3
11 15 22 28 29 30 32 31 30 29 29 29 27 25 23 22 22 21 19 19 20 19 18 18 17 17 20 23 21 19 16 16 17 16 16 16 15 15 14 12 11 11 12 13 12 12 13 12 9 7 8 10 11 11 9 8 8 8 9 10 9 7 8 9 8 8 7 4 4 4 3 3 4 4 3 3 5 6 8 7 7 7 5 3 3
10 10 16 25 28 30 31 30 32 32 31 31 29 28 27 25 25 23 22 22 21 20 19 19 18 17 21 24 22 19 17 15 15 15 15 16 15 15 14 12 11 10 9 8 8 9 9 9 8 6 6 8 10 10 10 8 9 9 9 9 8 7 7 7 8 9 6 3 2 1 0 1 2 3 2 2 3 4 5 6 6 6 6 5 1
11 10 12 18 22 25 28 30 32 33 32 33 33 32 31 29 28 25 24 23 22 21 20 19 18 18 21 23 20 18 17 14 13 13 13 13 12 12 11 11 11 12 10 9 9 9 8 9 9 8 7 7 8 9 10 9 9 10 10 9 9 8 8 6 8 10 8 5 2 1 1 2 1 2 2 1 3 3 3 5 6 6 6 6 6
15 14 12 14 17 22 28 31 31 31 32 34 36 36 34 32 30 27 25 24 24 23 21 18 19 22 24 23 20 19 17 15 15 13 12 13 12 12 12 12 13 13 11 10 10 10 10 9 9 8 7 6 6 6 7 8 8 9 9 10 10 9 9 7 7 10 10 7 2 0 1 1 1 2 4 2 4 4 4 4 5 5 5 5 7
15 15 13 14 17 21 26 29 29 29 31 34 37 38 36 34 32 27 24 25 25 23 21 19 22 25 25 23 22 21 19 17 16 15 14 14 13 13 13 12 11 10 9 11 12 13 11 10 8 8 7 6 5 4 5 5 6 7 7 8 8 7 8 8 7 9 11 8 3 3 3 2 1 1 2 1 5 5 4 4 4 5 5 5 7
10 10 11 13 17 19 20 25 28 28 28 31 35 37 37 35 33 28 26 27 25 23 22 22 24 25 24 23 22 22 20 18 18 18 17 15 14 13 13 12 11 9 9 10 12 14 14 13 11 9 8 7 6 6 6 5 5 6 5 6 7 7 7 7 9 10 9 7 5 2 3 3 3 2 2 0 3 3 5 6 6 7 6 7 8
11 11 11 12 14 16 17 23 28 27 26 29 34 36 37 36 33 29 27 27 24 24 26 25 26 26 24 22 21 22 22 21 20 18 17 17 16 15 15 14 13 12 11 11 11 12 14 15 14 13 12 11 11 11 9 8 7 7 7 7 7 6 5 6 9 10 6 5 4 2 2 2 3 3 2 1 1 1 5 6 8 9 7 7 10
11 11 11 10 13 17 19 22 26 28 29 30 34 36 36 36 33 30 29 28 26 28 29 27 26 26 25 24 24 23 23 23 21 19 18 18 18 17 16 15 13 12 12 13 13 13 14 14 14 15 16 15 15 15 14 12 11 10 9 8 10 9 6 6 8 8 5 5 6 5 6 6 6 6 5 3 2 1 3 3 8 11 9 9 11
6 7 8 9 12 15 16 18 23 27 30 30 31 34 35 35 33 31 31 29 29 32 30 27 27 26 26 27 26 25 25 24 22 21 20 19 19 18 16 15 13 12 12 12 14 14 14 12 11 12 13 13 13 13 13 12 12 12 11 10 12 13 12 11 11 9 8 8 8 7 8 8 7 7 8 8 4 1 1 3 6 9 8 10 12
5 5 6 6 8 9 10 13 17 22 26 27 29 32 35 35 34 33 32 31 33 33 30 29 27 26 26 26 26 27 27 26 24 23 21 20 19 18 16 15 14 14 13 13 13 13 12 11 10 11 11 11 11 10 10 10 10 10 11 12 13 13 13 12 12 11 10 10 9 8 8 8 7 7 7 7 6 3 1 3 6 8 6 8 11
6 5 6 6 7 8 10 12 14 18 23 25 29 32 34 36 35 34 33 32 33 33 31 29 27 25 24 25 26 28 28 27 27 25 23 22 21 19 18 17 16 15 14 13 13 12 11 11 12 13 13 12 11 10 10 9 8 8 9 11 11 11 10 9 10 9 8 9 9 8 7 7 7 7 5 5 5 4 3 1 5 8 5 7 11
7 6 6 6 7 8 11 14 15 19 23 27 30 31 33 35 36 36 35 35 35 34 32 29 26 25 26 27 28 28 29 28 27 27 25 24 23 22 21 19 18 16 14 14 13 12 11 12 13 13 13 11 10 10 10 9 9 9 10 10 10 9 7 6 8 8 7 7 8 7 6 6 6 6 5 5 5 4 5 5 5 6 4 6 10
6 6 6 5 5 8 12 16 18 21 24 28 31 31 30 30 32 32 29 28 29 28 29 29 27 26 26 27 28 29 29 29 27 27 27 25 24 24 22 21 19 17 15 15 14 13 12 12 13 13 12 10 10 10 9 9 11 12 12 11 11 9 8 7 8 9 8 7 7 6 5 5 5 5 4 4 5 6 7 7 6 5 4 5 8
5 5 5 3 2 4 10 16 20 23 26 30 31 28 23 20 21 20 17 17 17 13 15 18 18 23 26 26 29 31 30 29 28 27 28 27 26 25 24 22 20 18 17 15 14 14 13 12 13 13 12 10 9 10 9 9 9 11 12 12 12 10 9 9 8 8 8 8 7 6 6 5 3 4 3 3 4 6 7 8 8 6 4 5 6
5 5 5 4 4 3 3 10 17 22 25 25 21 15 12 12 14 17 18 21 22 18 18 17 12 16 24 26 29 33 32 30 29 29 29 28 27 26 25 22 21 20 18 17 16 14 13 12 13 13 12 10 9 9 9 8 8 9 10 10 10 9 9 9 8 7 7 7 8 7 7 7 6 6 6 5 4 4 5 6 9 8 4 3 4
5 5 5 4 5 6 5 1 6 13 16 14 11 11 13 14 13 13 14 18 21 22 26 25 17 15 21 28 30 33 33 31 30 31 31 29 27 27 26 24 23 21 19 18 17 14 12 11 12 13 13 11 10 9 8 7 6 7 7 7 7 7 6 7 7 7 6 6 6 6 7 8 8 8 9 9 7 5 5 5 7 7 5 3 1
6 6 5 4 5 8 9 9 6 7 11 14 16 16 18 19 17 15 15 17 18 19 23 24 20 21 24 29 31 31 33 32 30 32 32 31 29 28 27 26 25 23 21 20 18 15 13 11 11 12 13 12 11 9 7 5 5 5 5 4 4 4 3 4 5 5 5 4 4 4 4 6 6 7 8 8 8 7 7 8 7 6 6 4 2
6 6 6 5 7 11 13 12 12 15 17 20 22 22 22 23 23 20 17 17 18 21 25 26 27 29 28 29 29 29 32 33 30 31 32 31 31 30 29 28 26 25 22 21 20 17 14 12 11 11 12 12 11 9 7 5 4 4 4 3 2 2 0 1 2 2 3 3 2 2 2 4 5 4 5 5 6 6 7 8 7 7 7 6 4
6 6 7 7 9 13 15 13 13 16 19 22 23 25 25 26 29 30 28 24 23 25 26 28 30 30 28 29 30 27 32 35 33 32 32 32 32 31 30 28 27 26 24 22 21 18 16 14 12 12 11 12 11 9 7 6 5 4 3 3 3 3 3 2 1 1 1 0 1 1 2 4 4 3 3 2 3 5 7 8 8 8 7 7 9
5 7 7 7 10 14 15 14 13 14 15 18 20 23 26 25 27 32 30 25 25 28 28 29 31 30 31 31 31 27 32 35 35 33 32 32 32 32 31 29 28 27 25 23 21 19 17 14 13 12 11 11 11 10 9 7 7 7 6 5 6 5 5 5 5 4 4 3 2 1 1 1 2 3 3 2 3 5 5 6 7 6 6 6 9
5 7 6 5 8 13 16 17 16 13 11 12 14 17 22 25 26 27 27 25 28 33 34 32 31 31 31 31 30 30 33 34 35 35 35 34 34 34 32 30 30 28 25 23 22 20 17 14 13 12 10 10 10 9 9 8 8 9 8 8 8 8 8 8 8 8 7 6 5 4 4 3 3 3 3 3 3 3 4 5 6 5 4 5 6
6 7 6 5 8 12 16 18 18 16 12 9 10 12 16 21 21 21 22 25 29 34 37 36 33 32 33 32 31 31 30 30 32 32 32 32 32 34 35 33 31 29 27 24 21 20 18 15 13 12 10 9 9 9 9 8 8 9 10 11 11 11 10 10 11 11 10 9 8 7 6 5 6 5 4 4 3 2 4 5 5 4 4 5 6
7 6 6 6 7 10 14 16 17 17 15 13 11 11 14 16 16 16 18 24 29 34 38 37 31 30 31 31 31 29 26 27 28 23 23 26 26 29 32 34 33 30 28 25 23 20 18 16 14 13 12 11 10 10 10 9 9 10 11 12 13 13 13 13 14 13 13 13 12 10 8 8 8 7 6 5 4 4 5 5 5 6 6 7 8
6 6 6 6 6 7 9 13 15 16 16 16 16 14 13 12 12 13 15 19 23 25 29 30 27 27 29 29 30 29 25 22 17 11 11 19 22 24 27 30 31 31 30 27 24 22 19 18 16 15 14 14 13 13 13 13 13 12 12 13 14 15 15 16 16 16 15 15 15 13 11 11 10 8 7 7 6 5 6 6 6 8 8 9 10
6 6 6 5 5 5 7 11 14 16 16 16 17 18 18 16 15 15 14 16 18 18 20 22 23 23 25 24 24 25 23 21 18 13 9 10 12 14 18 23 22 20 23 25 24 23 21 19 17 16 16 16 16 16 16 17 18 17 17 16 16 17 18 18 18 18 17 17 17 15 13 13 12 10 8 8 8 7 7 8 8 9 10 12 13
6 6 6 5 5 5 6 9 12 15 15 15 16 17 19 21 20 20 20 18 16 15 14 16 18 20 20 20 20 18 16 17 19 18 15 13 11 9 12 19 17 13 15 18 17 18 19 19 19 18 17 17 17 17 17 17 19 20 20 20 20 20 20 21 21 21 20 19 18 17 15 15 15 12 11 10 10 9 9 9 10 10 12 13 15
5 6 6 6 6 5 6 8 11 13 15 15 15 14 15 17 17 19 21 20 18 17 17 16 17 19 19 18 18 17 15 15 16 15 15 18 17 13 13 16 17 17 17 15 13 14 17 19 19 19 19 19 19 19 18 18 18 19 20 20 22 24 25 25 24 24 23 21 20 19 17 17 16 14 13 12 11 11 10 9 9 10 12 14 16
5 5 4 4 4 3 5 8 9 11 14 15 15 14 12 10 9 10 13 14 12 12 12 10 10 15 21 21 17 16 17 17 19 17 15 18 20 19 17 16 17 19 20 20 19 17 18 20 20 20 21 19 19 19 20 18 18 19 20 21 22 24 27 29 28 27 25 23 22 20 19 19 18 16 14 13 12 11 10 9 9 10 11 13 13
6 6 5 5 4 3 3 7 9 10 12 14 15 15 13 11 9 8 9 9 8 8 10 12 11 11 17 19 16 16 16 14 15 17 21 24 25 25 23 19 18 18 17 20 22 20 19 20 19 19 19 19 19 20 19 18 19 21 22 23 24 24 27 30 31 30 28 26 24 22 21 20 19 17 15 14 13 11 10 10 9 10 11 11 9
5 6 7 7 6 6 6 6 7 7 9 12 13 14 14 13 12 12 11 9 8 9 12 15 15 12 12 13 13 12 11 14 20 24 25 24 24 23 20 16 15 16 15 16 18 18 17 15 13 13 14 15 16 16 17 19 20 22 22 24 25 25 26 30 33 33 31 28 25 24 23 22 21 18 16 14 12 11 10 10 10 11 11 10 8
7 8 8 8 7 8 9 9 7 5 7 10 11 11 12 12 12 12 12 11 11 11 11 10 9 8 8 10 13 15 15 18 22 23 20 19 18 16 13 9 10 11 11 11 11 11 10 10 10 11 12 12 13 14 16 18 19 20 21 22 24 26 28 30 33 34 31 28 27 27 25 23 21 18 16 14 12 11 11 11 12 12 11 10 9
10 10 10 9 9 10 13 14 12 8 6 7 8 9 9 8 8 8 8 10 11 10 10 10 10 11 12 13 14 17 18 18 18 16 14 14 13 11 9 7 7 7 8 8 9 8 8 8 8 8 8 8 9 12 14 15 16 16 17 18 20 24 28 31 32 32 30 28 29 28 25 23 20 16 15 13 12 13 13 13 13 13 11 10 10
10 10 10 11 13 15 17 19 20 17 10 5 5 5 5 4 3 3 3 4 5 6 8 11 14 15 15 16 19 20 19 17 16 15 14 13 11 9 8 6 5 5 5 5 4 4 4 5 5 5 5 6 7 9 11 13 14 15 15 16 17 19 23 28 31 32 30 29 30 29 26 24 20 17 15 13 13 13 13 14 14 13 12 11 11
9 9 10 14 18 19 20 22 24 23 21 17 13 10 7 7 5 3 2 2 2 2 5 8 11 11 13 17 19 19 17 16 14 13 11 10 8 7 6 5 4 5 4 3 3 1 1 3 5 5 5 5 6 8 10 12 14 13 13 12 13 14 18 23 24 25 26 26 27 27 22 17 14 14 14 12 12 13 13 14 14 13 13 13 12
6 9 11 14 17 18 20 22 22 23 24 23 24 22 18 14 9 5 4 4 5 6 4 6 8 7 10 14 16 15 13 12 10 8 7 6 5 4 4 4 3 3 2 2 2 2 2 3 4 5 6 6 6 8 11 12 12 11 9 7 9 12 15 16 16 17 18 20 20 19 15 10 10 13 12 11 11 12 12 14 15 15 15 14 13
10 14 15 15 14 15 19 19 19 21 21 21 23 25 24 21 16 11 9 8 4 5 7 8 7 7 8 11 12 11 10 8 6 6 6 5 5 4 3 3 3 3 3 4 4 5 6 5 6 7 7 7 7 7 9 10 9 7 5 3 5 8 9 10 10 11 13 15 13 11 10 9 10 11 11 10 10 11 13 15 15 15 15 13 12
15 18 20 19 16 15 16 16 16 18 18 19 21 22 23 23 20 16 12 11 10 7 3 4 5 6 9 12 12 10 9 8 7 7 8 6 5 4 3 3 4 3 3 4 6 6 7 8 8 8 8 7 7 6 6 6 5 4 2 3 6 8 9 11 11 12 12 13 11 8 8 10 10 9 9 9 9 10 12 12 12 12 11 10 10
17 18 19 20 18 14 12 13 13 12 14 18 20 21 22 23 22 19 16 13 11 10 7 5 4 2 4 11 13 11 10 10 10 10 9 7 6 6 5 5 4 4 5 6 7 7 8 9 9 9 9 8 7 6 5 5 4 3 4 5 6 8 10 10 10 10 10 11 10 10 9 10 10 9 8 9 9 9 9 9 8 8 9 10 11
18 20 20 21 20 16 12 10 5 3 7 11 12 15 19 21 21 20 19 18 16 12 9 7 7 6 3 3 6 8 10 10 10 10 10 8 8 8 8 7 6 6 6 7 8 7 8 10 10 10 10 9 9 8 7 6 5 6 6 6 6 8 9 9 9 10 10 11 11 10 9 9 8 8 7 7 6 6 6 6 7 9 10 12 13
19 21 22 22 21 20 18 15 10 6 5 4 5 10 14 16 18 19 19 21 20 17 15 14 12 8 4 2 1 1 3 4 4 5 7 9 10 11 10 9 9 8 7 7 7 6 8 11 11 10 10 10 9 8 8 8 7 7 7 7 7 7 8 9 9 9 9 9 9 8 7 6 6 5 4 3 3 4 6 8 9 10 10 10 11
19 20 21 22 21 20 20 20 19 17 14 9 9 12 13 13 16 19 19 19 19 19 18 16 11 7 6 5 4 3 2 1 1 1 3 5 7 11 11 11 10 9 7 6 5 6 8 11 11 11 10 10 9 8 7 7 7 7 7 7 7 7 8 9 9 8 8 8 7 7 6 6 4 3 3 4 6 8 9 10 10 9 8 9 9
18 18 18 19 19 19 19 20 21 22 21 19 16 16 16 16 17 18 19 19 20 21 21 18 13 10 10 9 8 7 6 4 3 3 4 5 6 6 8 10 11 10 8 6 6 7 10 12 12 11 10 9 9 8 7 6 7 7 7 6 7 7 8 8 9 8 7 6 7 7 6 5 4 4 5 7 9 10 9 8 7 7 7 8 9
20 20 20 18 17 18 19 21 22 21 21 20 19 18 17 19 21 22 22 22 21 20 19 19 18 16 14 12 11 10 10 9 9 8 7 7 8 8 9 10 12 13 12 10 9 10 12 13 12 11 10 10 9 9 8 7 6 6 7 6 7 7 7 8 8 7 6 6 6 6 4 4 4 5 7 8 9 8 7 6 6 7 7 8 9
18 20 21 20 19 19 20 21 22 21 20 20 19 17 17 17 18 19 22 24 24 21 20 19 19 16 15 14 13 12 12 12 12 10 9 9 9 9 9 9 11 13 14 13 13 13 14 14 13 13 12 11 11 10 10 9 8 7 7 7 6 6 7 7 7 6 4 4 4 3 2 3 5 7 7 7 6 6 6 6 6 6 7 8 10
16 17 19 20 22 23 23 23 23 22 20 19 19 18 17 16 15 14 14 16 18 21 23 24 24 23 22 20 17 14 13 12 12 11 11 11 10 10 9 9 10 12 14 16 16 17 17 16 15 14 13 13 13 12 12 12 10 8 7 7 7 7 7 6 6 5 3 2 1 2 3 4 4 4 4 4 4 5 5 6 6 7 9 11 13
17 18 19 20 21 21 22 22 23 24 21 19 19 19 19 19 19 18 16 14 12 12 14 16 17 19 20 20 19 17 16 15 14 14 14 13 12 12 11 11 11 12 15 17 18 18 18 17 16 15 15 14 14 14 14 13 11 10 9 9 9 8 7 6 5 4 3 3 3 3 3 1 1 2 3 4 6 6 7 7 8 10 12 13 15
19 19 19 18 18 19 21 22 23 24 23 22 21 21 20 21 21 21 20 19 16 13 12 12 11 10 11 13 13 13 15 17 18 16 15 15 14 13 13 13 13 14 17 19 19 19 18 17 17 17 16 16 16 16 16 14 13 12 12 11 9 7 6 5 4 3 3 3 2 1 1 2 2 3 5 7 8 8 9 10 11 13 14 15 17
21 21 20 19 19 20 21 23 25 26 25 24 24 23 22 21 21 20 18 18 18 17 16 15 13 11 10 10 10 10 12 16 18 17 15 14 13 13 14 14 13 14 16 18 19 19 19 19 19 19 19 19 19 18 16 14 14 13 12 10 9 7 5 4 3 2 1 2 2 3 3 4 6 8 10 11 11 11 12 13 14 16 17 19 19
22 23 23 22 22 22 23 25 27 28 27 26 26 25 22 20 19 19 17 16 17 18 18 18 17 15 12 10 10 11 13 14 16 16 14 13 11 12 13 13 13 14 16 17 17 16 17 18 19 19 19 18 18 17 16 15 14 13 11 9 7 5 4 3 2 2 3 3 4 4 6 8 9 11 12 12 13 14 15 17 18 19 19 20 20
23 23 24 25 25 25 25 26 27 27 26 26 26 25 23 22 21 20 19 18 17 17 18 19 20 19 17 15 13 13 14 15 15 15 15 14 12 11 12 13 15 15 16 16 16 15 15 17 18 18 17 15 15 16 17 15 13 11 8 6 5 4 3 4 3 3 4 4 6 7 8 10 10 11 12 13 14 15 17 18 20 20 20 20 21
Wind_Direction
159 157 158 161 167 169 170 170 165 160 164 168 168 169 171 171 170 169 166 163 161 159 156 156 152 141 138 139 137 133 125 117 113 115 123 129 133 138 141 149 166 169 167 174 182 188 190 189 188 185 195 206 213 219 213 208 211 205 202 200 191 185 183 189 201 201 188 169 160 170 189 214 237 259 270 266 263 257 250 244 236 210 171 161 184
156 159 162 163 167 169 170 171 166 163 166 170 171 171 175 177 177 174 170 169 170 169 165 160 153 147 145 143 140 134 127 120 115 114 118 121 124 130 131 132 146 156 157 164 173 179 179 178 185 194 200 205 211 219 221 218 215 206 200 195 188 191 195 193 195 194 198 192 151 146 181 213 235 243 250 274 277 264 256 254 247 229 209 171 133
162 166 165 167 172 171 171 173 172 172 173 174 174 174 176 179 180 179 175 174 176 175 171 163 157 156 150 144 142 136 130 128 124 121 123 121 122 126 126 129 137 147 152 156 163 171 173 170 178 191 199 206 212 218 221 220 215 203 197 195 193 200 204 203 204 199 195 183 136 96 213 221 262 244 229 280 311 292 262 256 252 238 230 231 203
166 170 170 172 176 174 175 177 177 176 175 174 174 174 177 179 181 181 178 177 177 176 173 167 163 159 148 142 140 135 132 135 132 129 130 126 126 130 134 134 132 137 146 152 158 166 168 163 166 177 190 203 213 220 221 220 218 212 205 201 201 206 209 208 216 217 206 187 179 320 39 60 338 305 329 333 344 331 288 271 266 252 244 252 263
168 174 177 174 177 181 180 179 180 178 177 175 174 175 177 180 182 182 180 179 181 181 178 174 165 153 143 138 134 130 130 136 135 131 132 129 124 123 128 132 128 124 122 126 141 156 164 164 163 170 180 192 205 217 221 222 220 214 210 207 208 212 211 202 207 216 209 199 199 110 62 25 241 324 359 349 352 345 313 302 299 286 273 277 281
171 172 175 176 180 184 181 179 179 180 180 176 175 177 178 180 181 181 180 181 183 186 185 176 164 156 150 143 138 135 135 138 138 134 133 131 125 121 121 128 134 127 114 110 117 130 144 157 163 171 179 181 185 188 190 196 198 200 204 207 213 215 207 198 194 199 203 207 196 124 87 61 156 61 50 328 339 355 357 342 336 333 317 313 314
169 168 177 182 184 183 180 180 180 181 181 175 175 177 178 179 180 178 179 182 186 189 185 174 165 163 161 155 150 147 144 141 138 134 131 129 125 122 119 119 124 121 112 109 112 118 124 130 133 145 162 164 154 146 148 156 163 170 173 184 203 210 205 197 187 181 186 199 202 153 79 67 70 67 96 93 337 343 348 355 358 351 339 340 344
172 175 184 186 187 186 181 180 181 182 179 174 175 176 177 178 178 175 176 183 187 184 179 174 169 166 164 162 159 155 148 143 141 137 133 131 125 123 122 119 115 108 104 105 111 115 113 113 112 115 124 130 128 123 126 140 147 146 141 146 166 183 194 191 182 180 176 176 172 121 72 63 53 53 48 47 98 323 326 347 3 0 1 8 4
173 174 183 185 191 193 187 180 179 180 181 179 177 177 178 178 177 175 177 183 184 177 175 174 170 167 166 165 160 154 148 145 144 140 137 134 129 127 127 126 121 110 105 104 107 111 109 108 107 109 113 118 118 114 114 118 119 123 124 123 125 124 127 139 152 162 161 148 138 118 102 91 80 71 55 53 101 79 316 321 349 355 358 4 4
159 164 178 189 196 197 191 182 179 181 184 182 179 178 179 179 177 176 179 184 181 175 174 171 169 167 166 163 157 153 151 149 147 143 142 139 135 134 132 131 131 124 115 110 109 111 112 111 108 108 112 116 115 112 112 111 107 108 108 111 114 110 110 112 115 123 126 125 127 121 107 96 87 72 58 58 71 64 331 304 338 353 344 345 359
151 147 160 176 194 198 192 185 184 185 185 184 183 182 181 181 180 180 182 185 181 177 174 170 169 170 167 164 161 159 157 154 152 149 150 148 144 143 139 136 136 134 129 123 118 117 117 114 109 108 112 115 116 113 115 117 112 108 107 110 113 112 111 108 105 110 114 116 117 114 107 99 90 76 61 58 63 57 19 308 332 349 334 335 359
139 127 138 156 174 185 185 186 191 190 188 189 187 185 184 183 183 182 183 184 181 179 177 173 174 175 172 171 169 166 163 160 157 156 158 157 153 149 147 143 139 136 135 133 132 129 124 116 111 109 108 108 109 110 114 117 118 115 115 117 116 114 114 110 108 109 115 117 111 106 101 93 84 80 72 64 64 59 52 334 333 350 338 337 360
129 124 137 156 166 177 181 183 190 194 195 195 193 189 186 184 185 184 186 188 186 184 181 178 178 177 174 176 175 171 169 166 162 163 164 163 159 156 153 150 146 144 141 139 141 142 135 126 118 112 106 103 104 105 105 106 108 108 110 116 117 117 115 114 114 113 117 117 108 103 98 91 85 77 74 71 62 46 41 23 349 350 334 332 356
117 115 122 140 162 181 187 187 192 199 201 201 200 195 188 185 185 184 184 186 185 185 184 181 179 177 176 178 179 176 174 172 169 169 170 169 166 163 161 157 154 152 149 145 145 145 141 134 127 121 114 110 109 109 105 102 103 101 100 103 104 106 107 109 114 115 113 109 103 104 99 93 86 71 64 59 47 41 43 31 2 353 344 342 356
95 87 86 89 113 173 194 199 200 202 204 206 207 202 191 182 181 177 165 165 170 169 169 176 181 180 180 182 184 182 180 179 178 176 175 176 174 169 166 163 158 156 154 151 148 147 146 143 140 136 129 123 119 116 110 103 100 96 95 96 93 94 98 103 109 114 111 101 91 88 82 77 64 38 24 21 38 49 49 39 28 26 8 350 350
88 80 63 24 14 42 190 208 210 211 210 210 208 197 172 158 167 169 160 164 173 168 163 179 199 189 187 192 191 187 185 184 184 182 181 182 180 174 170 165 160 157 157 156 154 151 147 146 150 148 142 134 131 130 119 105 100 97 95 94 89 87 89 94 101 102 98 92 86 77 61 54 51 45 40 36 51 59 47 37 35 45 51 1 344
100 97 76 36 23 35 46 78 213 215 210 200 187 177 165 151 145 148 150 155 160 162 167 180 200 210 203 200 196 192 189 188 189 187 186 188 187 181 174 168 162 160 160 160 160 158 152 147 148 150 148 143 136 136 130 116 111 109 105 98 91 88 82 85 91 90 89 89 86 76 51 49 59 60 56 56 59 55 43 31 24 37 53 49 19
126 124 113 102 71 59 61 63 82 146 166 164 159 160 160 154 142 130 129 134 139 154 166 175 201 227 219 202 199 200 193 191 195 194 191 192 192 187 180 173 168 164 162 162 162 162 160 155 149 148 151 153 148 145 143 137 129 124 123 115 101 99 80 76 84 80 84 87 82 80 56 47 55 58 58 60 55 45 33 26 20 22 29 37 60
115 103 91 86 65 59 65 76 98 122 141 148 144 139 142 151 157 156 157 160 168 184 187 188 207 229 227 205 201 208 201 195 196 198 197 197 196 192 186 180 174 169 166 164 165 166 164 162 158 153 154 159 159 158 160 164 159 147 148 155 143 144 130 58 84 64 61 77 90 113 78 47 40 43 55 54 41 27 13 10 10 7 9 8 1
99 91 80 73 62 60 65 77 107 131 143 149 150 154 157 161 171 183 192 190 185 190 192 193 207 231 237 210 198 208 208 200 196 198 202 202 201 198 191 185 181 176 172 168 168 168 166 163 161 159 160 164 167 169 172 179 186 192 199 204 211 219 243 260 244 273 298 311 136 154 97 48 29 15 26 37 17 3 352 350 350 345 350 349 339
97 89 85 84 75 72 72 80 107 135 152 160 165 169 172 176 184 192 195 186 181 188 191 194 207 230 236 210 195 207 213 204 198 198 203 206 206 203 196 191 186 182 179 176 174 172 168 164 162 161 163 166 172 176 181 189 196 208 221 224 230 238 245 249 246 254 266 260 230 215 226 6 359 351 352 332 331 349 356 357 356 347 345 342 331
91 78 73 82 86 84 82 83 96 116 141 166 174 173 177 186 191 193 193 187 186 191 194 199 209 221 220 203 194 203 209 206 200 198 201 206 208 207 201 195 190 188 186 182 179 176 172 167 164 163 163 167 173 181 189 197 204 213 224 228 231 239 246 247 244 249 261 262 258 258 259 263 274 298 329 319 308 337 356 357 2 4 358 356 350
69 68 61 66 87 92 90 85 88 99 114 145 176 190 193 195 194 190 191 191 192 194 198 205 211 212 205 197 194 198 202 204 202 200 200 202 206 207 203 198 194 191 190 189 185 181 176 171 169 169 170 173 177 187 196 205 213 220 226 230 232 236 242 245 244 246 252 256 259 262 263 265 264 263 288 310 301 311 337 341 346 354 353 352 355
57 61 52 51 72 84 89 88 86 91 98 111 139 176 199 208 207 197 193 193 195 198 200 203 208 205 197 193 193 197 200 201 203 205 199 195 202 208 204 199 196 193 192 191 189 186 182 179 179 178 181 186 190 196 206 215 223 228 231 233 236 238 240 243 244 245 246 248 251 253 256 261 264 261 271 293 295 300 317 322 321 324 327 327 329
79 75 59 48 50 58 78 89 90 90 91 95 107 127 152 174 182 183 188 189 190 194 197 199 204 197 186 185 189 196 202 202 206 221 204 194 203 211 206 199 195 193 193 193 191 189 188 186 188 190 194 200 204 207 213 222 228 232 236 238 238 240 243 244 245 245 244 244 245 248 251 251 254 256 263 278 283 284 299 303 302 307 312 317 321
113 106 94 78 63 55 71 85 90 92 92 92 95 104 117 128 137 146 158 171 182 191 194 196 197 184 171 171 180 191 197 197 202 215 216 209 212 208 199 196 195 189 188 190 191 193 194 193 194 198 202 208 213 216 220 226 230 231 235 239 239 240 243 244 246 246 245 243 241 243 246 243 241 243 247 257 263 265 276 285 291 301 308 314 319
128 120 115 106 95 81 76 85 91 93 93 92 92 97 105 110 114 120 127 138 157 167 165 164 165 161 155 156 163 171 174 177 187 196 195 200 214 218 201 199 202 194 178 177 184 192 198 201 202 204 208 211 213 216 220 226 232 232 233 238 241 242 242 242 244 246 245 243 240 239 238 232 230 231 231 236 244 252 262 274 285 297 305 311 316
126 128 129 127 122 112 95 95 98 99 99 95 92 94 100 104 107 112 116 118 120 121 116 113 119 126 128 133 146 159 158 149 152 159 167 177 187 200 205 200 201 199 188 182 189 197 201 206 208 210 213 214 214 222 232 235 235 235 234 237 242 244 243 241 242 243 243 242 238 237 234 226 221 221 223 228 236 244 255 266 278 289 298 307 312
101 105 101 105 117 126 120 113 106 104 105 101 96 93 92 96 108 123 131 133 132 128 122 111 102 107 109 107 116 138 145 139 138 145 168 182 182 189 202 202 196 195 194 195 201 206 207 209 213 215 217 222 231 246 256 252 245 244 245 245 247 247 245 243 240 239 240 238 235 234 229 222 218 217 220 227 234 243 254 260 268 281 296 306 309
76 76 70 62 45 36 86 108 107 105 107 105 99 94 89 91 106 128 141 154 177 183 167 171 183 159 131 127 131 136 139 149 168 184 198 204 200 198 202 200 192 195 205 208 209 215 218 219 223 227 231 241 252 260 265 264 264 266 265 260 257 254 249 244 241 237 235 233 230 228 222 218 217 218 222 229 234 242 252 255 264 280 294 301 302
53 64 74 71 59 43 39 63 87 99 104 106 104 100 93 92 104 116 123 133 152 158 151 156 169 170 160 167 181 181 174 187 198 196 193 194 195 196 198 200 201 210 220 217 214 219 223 226 237 246 254 261 265 267 267 269 272 272 270 267 264 261 255 248 242 237 231 226 222 220 218 217 218 221 225 230 235 241 247 252 265 281 289 292 291
34 36 45 52 59 62 52 46 53 74 97 102 105 105 98 95 102 109 114 122 127 133 139 145 153 158 163 180 198 204 197 192 191 188 183 182 187 194 199 201 204 208 210 213 221 231 237 248 263 270 277 279 276 275 273 275 276 274 271 270 267 265 260 253 244 234 226 221 219 217 216 216 218 221 226 230 234 239 245 255 268 278 283 285 286
42 36 33 33 35 44 49 45 41 45 80 102 102 96 86 85 96 100 108 119 120 121 131 140 146 148 147 155 170 176 172 168 168 168 168 170 178 188 192 191 196 204 217 231 243 253 259 267 273 277 282 283 282 282 283 288 292 291 286 280 273 267 261 253 241 228 221 220 219 216 212 210 209 218 230 234 235 240 245 254 264 271 274 277 279
40 39 34 29 24 25 31 33 31 31 39 65 90 86 59 36 57 91 89 103 119 119 122 136 147 149 150 158 163 160 154 151 150 150 152 155 158 159 159 164 170 177 194 210 221 234 238 236 243 254 262 272 284 291 299 306 304 300 297 290 283 275 261 249 237 227 222 223 220 216 211 207 208 220 233 235 235 240 247 255 261 265 268 271 271
31 33 31 26 20 12 14 22 23 22 24 23 22 23 15 0 345 297 294 307 230 169 128 138 146 142 142 152 154 151 149 150 149 148 148 146 146 147 146 146 142 140 149 158 153 153 187 201 211 226 243 263 283 297 310 317 317 312 305 292 277 262 247 238 231 224 223 222 218 213 210 210 218 228 232 235 239 245 252 257 259 262 264 266 265
27 36 37 34 22 4 3 13 15 15 14 11 9 8 5 7 7 340 315 302 255 237 196 154 145 136 140 149 151 147 144 147 150 150 147 144 148 154 157 168 177 178 192 214 222 252 273 250 226 231 249 265 285 305 316 326 334 335 327 299 262 243 234 232 227 220 217 213 212 213 215 220 228 226 225 232 240 246 251 254 255 257 257 255 253
20 27 24 26 22 7 5 8 8 10 6 355 357 1 357 359 6 9 14 18 339 269 237 206 185 172 164 161 161 157 150 149 152 153 154 157 161 164 170 191 209 218 232 253 263 258 255 257 248 243 250 259 269 289 309 325 337 340 334 290 235 219 211 206 196 191 195 195 196 208 214 210 213 217 220 230 236 239 244 246 246 246 243 239 239
17 14 7 6 9 8 8 2 358 5 358 342 347 356 352 348 350 353 1 9 10 3 326 234 210 204 199 190 185 179 170 168 170 168 168 172 178 190 207 220 230 249 269 285 291 275 257 253 251 246 245 247 251 263 289 309 320 316 279 205 184 176 170 167 163 162 171 178 183 196 209 215 223 230 236 245 247 242 237 233 232 232 234 241 250
6 2 356 356 359 4 6 357 353 0 354 343 346 348 341 336 336 336 336 335 342 360 13 22 27 7 215 197 193 194 191 185 182 180 180 187 202 215 222 227 238 262 286 305 315 300 266 248 244 243 243 241 241 241 250 266 265 247 232 214 196 184 172 171 178 183 187 196 207 219 226 230 236 241 245 252 251 241 232 229 235 250 265 277 284
357 355 352 350 350 351 350 342 331 339 344 344 342 331 319 316 318 320 318 316 318 326 336 343 353 1 6 175 182 191 196 193 189 189 194 205 218 225 227 230 240 258 277 299 316 305 264 244 235 233 236 236 234 228 223 227 233 229 223 217 210 203 191 185 191 199 204 209 214 219 221 224 232 238 241 243 241 238 245 257 273 286 294 299 301
351 351 352 351 347 344 341 335 325 313 307 294 288 299 301 301 301 299 297 300 304 305 304 301 300 300 296 305 14 156 194 191 192 209 225 233 231 228 228 233 239 249 266 289 305 290 253 238 226 221 222 222 221 221 215 215 222 227 225 222 217 210 205 200 194 194 198 198 195 198 202 204 210 215 218 234 260 283 293 296 300 303 307 310 311
343 343 345 345 342 340 339 335 333 331 326 308 286 284 285 286 290 288 284 283 284 283 285 286 280 268 256 253 262 275 268 186 145 241 286 275 246 230 231 238 242 249 261 272 277 265 242 229 220 214 213 211 209 211 213 216 222 227 227 228 222 210 205 206 201 190 186 185 181 180 182 183 190 213 256 291 301 302 303 304 307 309 314 317 317
333 333 334 334 330 328 326 325 327 329 331 331 321 301 281 269 271 276 278 275 272 271 272 268 261 260 263 258 253 254 250 238 248 274 296 305 292 263 255 258 258 263 267 257 247 243 231 220 214 209 209 210 208 206 210 221 229 229 225 223 218 207 202 207 209 199 186 180 177 176 184 200 227 262 289 301 305 303 301 302 307 310 312 313 311
323 322 324 324 320 315 314 314 314 317 321 326 330 323 302 279 268 269 273 273 271 270 269 266 262 256 248 240 237 238 242 249 262 272 273 278 287 286 277 268 260 257 253 243 238 232 220 211 210 210 209 210 208 205 208 217 222 221 218 216 213 207 204 209 213 205 184 174 176 186 205 233 262 289 300 305 306 301 293 291 297 301 305 307 310
311 314 318 319 315 310 308 306 305 308 309 308 313 320 317 304 291 283 275 267 261 259 262 265 267 262 248 240 238 238 243 247 248 250 252 257 270 281 283 277 262 249 241 236 232 224 215 208 209 212 212 211 209 205 204 207 210 211 212 210 207 204 204 206 205 197 183 174 178 200 250 286 299 303 305 307 307 299 290 289 293 298 308 316 319
310 312 315 316 313 309 307 304 302 304 303 300 298 299 303 307 310 307 295 277 264 260 258 257 259 263 259 252 243 236 234 233 231 234 242 250 258 267 278 286 277 254 241 236 227 216 208 205 208 212 212 208 205 203 205 205 202 200 202 201 194 187 185 187 188 186 186 189 218 283 302 305 306 310 317 325 330 328 322 318 317 319 323 326 325
307 309 310 310 307 304 303 302 302 301 300 297 293 290 289 290 293 296 301 303 298 288 276 265 262 263 258 249 239 233 229 227 226 230 237 244 249 253 260 270 269 249 233 225 216 208 203 202 206 209 207 203 201 202 204 205 201 198 197 193 186 182 183 190 197 205 224 258 280 293 304 314 358 18 10 1 356 350 342 336 330 327 326 326 325
308 308 306 304 300 297 297 296 295 295 296 294 290 287 284 283 283 284 287 292 296 299 299 296 292 284 268 252 242 236 232 228 223 221 225 233 240 246 251 256 256 245 230 217 209 207 208 210 212 209 202 198 200 203 204 204 202 198 192 186 186 194 206 219 237 257 271 275 270 251 133 105 63 19 4 357 351 343 338 334 330 328 327 325 324
308 307 305 301 296 293 293 292 291 291 292 290 288 285 281 278 278 277 276 279 282 284 286 290 293 293 283 269 260 254 242 229 220 214 216 223 230 238 245 247 245 240 232 223 218 218 221 224 222 214 204 199 200 201 201 199 196 193 191 193 201 215 228 239 262 273 242 193 155 123 78 37 15 3 356 352 348 343 339 335 332 331 329 327 325
303 302 301 298 294 292 290 289 289 291 291 287 284 282 278 272 270 270 269 268 269 270 271 273 276 280 281 277 271 262 246 231 222 217 212 211 215 223 227 224 219 219 221 225 229 234 236 232 223 213 210 212 211 202 191 188 189 191 195 202 209 217 223 218 202 171 151 131 103 67 37 21 12 4 360 356 351 346 342 337 335 333 330 327 326
299 297 295 293 291 289 287 286 287 289 290 287 284 281 277 273 269 268 268 266 265 265 265 263 262 263 265 266 269 262 243 228 219 213 206 200 196 197 203 207 210 213 217 222 229 234 238 234 224 213 207 207 204 192 183 183 189 192 194 196 192 188 176 151 138 139 127 93 60 40 27 15 7 2 359 355 350 346 343 340 337 333 329 327 326
Height
761 761 762 763 765 769 772 774 776 779 781 783 785 786 789 791 794 796 798 800 801 802 802 803 803 804 804 805 807 809 810 811 812 813 813 814 814 814 814 815 815 817 818 818 820 820 821 821 821 822 822 823 823 824 825 825 826 826 826 827 828 828 829 830 831 832 833 834 834 834 834 834 834 834 834 834 834 834 834 835 835 836 836 835 835
763 763 762 763 765 767 771 773 775 777 780 781 783 785 788 791 793 796 798 800 801 802 802 802 803 803 804 805 807 809 810 811 812 813 814 815 816 816 817 817 818 819 819 820 821 821 821 821 822 822 822 822 823 823 824 825 825 825 826 827 828 828 829 829 831 832 833 834 833 833 834 834 834 833 834 834 833 833 834 834 834 835 835 835 834
765 764 763 763 765 767 770 772 774 775 778 780 782 784 787 790 793 796 798 799 801 802 802 802 803 804 804 806 807 809 810 811 813 814 814 815 816 817 818 819 819 820 820 821 821 821 821 822 822 822 822 822 823 823 824 824 824 825 825 826 827 829 830 830 831 831 831 833 833 833 833 834 833 833 833 833 833 833 833 834 834 834 834 834 834
765 765 765 765 766 768 769 770 772 774 776 777 779 783 786 789 792 795 797 799 801 802 802 803 803 805 806 807 808 809 811 812 813 814 815 815 816 817 818 819 820 821 821 821 821 821 821 822 822 822 822 822 822 822 823 823 823 824 825 826 827 829 830 830 830 831 831 833 833 833 833 834 834 833 833 833 833 833 833 834 834 834 834 834 834
762 764 764 764 766 766 766 768 770 772 774 775 777 781 784 788 791 794 797 799 800 801 802 802 803 804 806 807 809 810 812 813 814 815 815 816 816 817 818 820 820 821 821 821 821 821 821 822 822 822 822 822 822 822 822 823 823 824 824 825 826 828 829 830 830 831 831 832 833 833 834 835 835 834 834 833 833 833 834 834 834 834 833 833 833
756 759 762 763 763 764 764 766 768 770 771 773 776 779 783 786 790 793 796 798 799 800 801 802 802 803 805 806 808 811 813 814 815 815 816 816 817 817 818 819 820 821 821 821 821 821 821 822 822 823 823 823 823 823 823 823 823 824 825 826 827 828 828 829 830 830 831 831 832 833 834 834 834 834 835 835 834 833 834 834 834 834 833 833 832
756 758 761 761 761 763 764 765 767 769 771 774 777 779 782 785 789 792 795 797 798 799 800 801 802 803 804 806 808 810 812 815 816 816 817 817 817 818 818 819 820 820 821 821 821 821 821 822 822 823 823 823 823 823 823 824 824 824 825 826 827 828 828 829 830 830 831 832 833 833 833 834 834 834 836 837 836 835 834 834 834 834 833 833 832
754 757 758 759 761 762 764 765 766 769 772 775 776 778 781 784 787 790 793 795 797 798 799 799 801 802 804 807 808 810 812 814 816 817 817 818 818 818 819 820 820 821 821 821 822 822 822 822 823 823 823 824 824 824 824 824 824 825 826 826 827 828 829 829 830 830 831 833 833 833 834 835 835 835 836 837 838 837 835 834 834 833 833 832 832
752 755 757 759 760 762 764 765 767 770 772 774 775 777 780 782 785 788 791 793 795 797 798 798 800 802 804 807 809 810 812 814 816 817 818 818 818 819 819 820 821 821 822 822 822 822 823 823 824 824 824 825 825 825 825 825 826 826 827 827 827 828 829 829 830 830 831 832 833 834 835 836 836 836 837 837 837 838 838 836 834 833 832 832 831
754 755 757 758 760 762 765 767 768 769 771 774 775 777 779 781 784 786 788 791 793 796 797 798 800 802 804 806 808 810 812 814 816 817 818 818 818 819 819 820 821 822 822 823 823 823 824 825 825 825 826 826 827 827 827 827 827 828 828 828 828 829 830 830 830 831 832 833 834 834 835 836 836 837 837 837 837 838 838 837 836 834 833 832 831
755 756 757 759 761 764 767 769 770 770 772 775 776 777 778 780 781 784 786 789 792 795 797 799 801 802 804 806 808 810 811 813 815 817 818 818 818 819 819 820 821 822 823 823 824 824 825 825 825 826 826 827 827 827 828 828 828 829 829 829 830 830 831 831 831 832 832 833 834 835 835 836 837 837 838 838 838 838 839 838 837 835 834 832 831
754 756 758 759 761 763 766 769 770 772 772 774 775 776 777 778 780 782 786 789 791 794 797 798 801 802 803 806 808 810 811 813 814 816 818 818 818 819 820 820 821 822 823 823 824 825 825 826 826 826 827 827 828 828 829 829 829 830 830 831 831 831 832 832 833 833 834 834 835 836 836 836 837 838 838 838 838 839 839 838 837 835 834 833 831
753 756 757 758 761 762 765 767 769 770 771 772 773 774 775 776 778 781 784 787 790 793 796 797 800 801 803 806 809 810 812 813 814 815 817 818 818 819 819 820 821 822 823 823 824 825 825 826 826 827 827 828 829 829 830 830 830 831 831 832 832 833 833 834 834 835 835 836 836 837 837 838 838 839 839 839 839 839 838 838 837 836 835 833 832
753 755 756 758 760 761 764 765 767 768 769 771 771 772 775 777 779 782 784 788 791 794 796 797 800 801 804 807 809 811 812 813 814 815 817 818 818 818 818 819 820 822 823 823 824 825 826 826 827 827 828 828 829 830 830 831 831 832 832 833 833 834 835 835 835 836 837 837 838 838 838 839 839 839 840 840 839 839 839 838 837 836 835 834 833
755 756 758 759 761 761 763 764 765 766 767 768 770 772 776 779 781 784 785 788 793 796 800 803 805 804 805 807 808 810 811 812 814 815 817 818 817 817 817 819 820 821 823 823 824 825 826 827 827 827 828 829 829 830 831 832 832 833 833 834 834 835 835 836 836 837 838 838 839 839 840 840 840 840 840 840 840 840 840 839 838 837 836 835 834
758 759 760 760 761 761 762 763 764 765 766 768 771 775 779 781 783 783 783 785 788 792 800 808 809 807 806 807 807 809 810 811 813 814 816 817 816 816 816 817 819 820 822 823 824 825 826 827 827 828 828 829 830 830 831 832 833 834 834 835 835 836 836 837 837 838 838 839 840 840 841 841 841 841 841 841 841 841 841 840 840 839 838 837 836
761 761 762 762 762 761 761 762 763 764 767 769 772 775 777 780 783 785 786 788 788 790 796 803 807 807 807 806 807 808 809 810 812 813 815 816 816 816 816 817 818 819 821 822 824 825 826 827 827 828 829 829 830 831 831 832 833 834 835 835 836 837 837 838 838 839 839 840 840 841 842 842 842 842 842 842 842 842 842 841 840 840 840 840 840
763 764 765 765 763 762 762 762 762 763 765 768 770 772 775 779 782 785 790 792 793 796 799 801 805 807 807 806 806 808 809 810 811 813 814 815 816 817 817 817 817 818 819 821 822 824 825 826 827 828 829 829 830 831 832 833 833 834 835 836 836 837 838 838 839 839 840 840 841 841 842 842 842 843 842 842 842 842 842 842 841 841 841 841 841
761 761 762 762 761 762 762 762 763 764 765 767 769 771 774 778 779 782 787 790 792 797 799 800 804 806 806 805 805 808 809 810 810 812 814 814 815 816 816 817 817 817 817 818 820 822 823 825 826 827 828 829 830 831 832 833 833 834 835 836 837 837 838 839 839 840 840 840 841 841 842 842 842 842 842 842 842 842 842 842 841 841 841 841 841
759 759 760 760 760 762 762 764 765 765 767 768 769 770 773 776 776 776 781 785 789 795 798 799 803 806 805 804 803 804 807 807 808 810 812 813 814 815 815 816 816 816 816 817 818 820 821 823 824 826 827 828 830 830 831 832 833 834 835 836 837 838 838 839 839 840 840 841 841 841 842 842 842 842 842 842 842 842 841 841 841 841 841 841 841
760 760 760 761 762 763 764 765 766 767 768 769 769 770 772 774 774 774 777 781 785 789 793 796 800 802 802 801 800 801 803 805 806 807 809 811 812 813 814 814 815 815 815 816 817 818 819 821 822 824 825 827 828 829 830 831 832 834 835 836 837 838 838 839 839 840 840 841 841 841 842 842 842 842 842 842 842 842 842 841 841 841 841 842 841
762 762 764 765 764 764 766 766 767 768 769 769 770 771 771 772 772 774 777 778 780 783 787 791 794 796 797 797 797 799 800 802 803 804 806 808 810 811 813 813 814 814 815 815 816 817 818 820 821 823 824 825 827 828 829 830 831 833 834 835 836 837 838 839 839 840 840 841 841 841 842 842 842 842 842 842 842 842 842 842 842 842 842 842 841
765 766 768 769 767 766 766 767 768 770 770 771 771 771 771 772 773 775 776 777 779 782 785 789 791 792 793 793 794 796 798 800 801 802 803 805 808 810 811 811 812 813 814 814 815 817 818 819 820 822 823 825 826 827 828 829 830 831 832 834 835 836 837 838 838 839 840 841 841 841 841 842 842 842 842 842 842 842 842 842 842 842 842 842 842
768 769 771 772 771 769 767 767 769 771 772 773 772 772 773 773 775 776 778 780 782 783 785 788 790 791 791 791 793 795 796 798 799 801 802 803 807 810 810 810 811 811 813 814 815 816 818 819 820 821 822 824 825 826 827 828 828 829 830 831 833 834 835 836 837 838 839 839 840 841 841 841 842 842 842 842 842 842 842 842 842 842 842 842 842
771 772 773 775 774 773 771 769 770 771 773 774 774 774 774 775 777 778 779 782 785 787 787 786 788 790 790 790 792 794 796 797 799 802 804 804 806 810 810 811 811 811 812 813 815 816 818 819 820 821 822 823 823 824 824 825 826 827 828 829 831 832 834 835 836 837 837 838 839 839 840 841 841 842 842 842 842 842 842 842 842 842 842 842 842
772 772 774 776 776 776 774 772 772 772 773 774 775 775 775 775 776 777 778 779 782 785 784 784 786 788 788 789 792 795 796 796 798 801 805 808 810 811 812 812 813 813 813 814 816 817 817 818 820 820 821 821 822 822 822 822 823 824 826 827 828 830 831 833 834 835 836 836 837 838 838 839 840 840 841 841 841 841 841 841 842 842 842 842 841
772 773 775 776 777 777 776 775 774 774 775 776 776 777 776 776 776 776 777 778 780 781 782 783 785 785 786 788 791 794 796 796 798 800 804 809 813 816 816 813 813 815 816 816 818 819 819 819 819 819 820 820 820 820 821 822 823 823 824 825 827 828 829 831 832 833 834 835 835 836 837 837 838 839 839 840 840 841 841 841 841 841 841 841 841
773 774 775 776 777 777 777 777 776 776 776 777 778 779 778 777 777 777 777 779 781 782 783 785 786 785 786 788 790 792 795 797 800 803 806 809 812 817 819 816 815 818 818 818 819 821 821 820 819 818 818 819 819 820 820 821 822 823 823 824 825 826 827 828 830 830 832 832 833 834 835 835 836 837 838 838 838 839 839 840 840 841 841 841 840
776 777 778 778 779 779 778 778 777 777 778 778 779 780 780 779 779 778 777 778 781 782 782 784 788 789 789 790 792 793 794 797 799 803 809 812 811 812 815 816 817 818 818 816 818 820 820 820 819 818 818 819 819 819 819 820 821 821 822 822 823 824 825 826 827 828 829 830 831 832 833 834 834 835 836 836 837 837 838 838 839 839 840 840 840
780 780 781 781 781 781 780 779 779 780 780 780 781 781 781 781 781 780 779 779 780 781 780 782 786 790 790 790 792 793 795 798 800 802 807 809 809 808 809 811 812 813 813 813 814 816 817 818 818 818 818 819 819 819 819 819 820 820 821 821 821 822 823 824 825 825 827 828 829 830 831 832 833 833 834 834 835 836 836 837 837 838 838 839 839
783 783 782 781 782 784 784 783 783 783 783 782 783 783 783 783 783 783 782 781 781 781 781 782 784 787 789 789 791 792 794 798 801 802 804 806 807 807 808 808 808 809 810 811 812 814 814 815 816 817 817 818 818 818 817 818 818 819 820 820 820 820 820 821 822 822 823 825 827 828 829 830 830 831 832 833 833 834 834 835 836 836 836 837 837
787 788 786 785 785 786 787 788 787 787 786 785 785 785 785 785 786 786 786 785 784 783 783 784 784 786 787 788 789 792 795 798 799 801 803 804 805 806 806 807 807 808 810 810 811 812 813 814 814 815 816 816 816 816 815 816 816 817 818 818 818 818 818 818 819 819 821 824 825 826 826 827 828 829 830 831 832 833 833 833 834 834 835 835 835
793 794 792 792 792 791 790 790 790 789 789 788 788 787 788 788 788 788 788 788 787 786 785 785 785 787 788 789 790 793 795 797 799 801 802 803 804 804 805 806 806 807 808 809 810 811 811 812 813 814 814 815 815 814 814 814 815 815 816 816 816 816 816 816 816 817 819 821 822 823 824 825 826 828 829 830 831 831 831 831 832 832 833 833 834
798 798 797 796 796 795 794 792 791 791 791 791 791 791 791 791 790 790 790 789 789 789 788 788 788 789 789 790 792 793 795 797 798 800 801 802 803 804 805 805 806 807 807 808 809 810 811 812 813 813 814 814 814 814 814 814 814 813 813 813 813 813 813 814 814 814 816 819 820 820 821 823 824 827 828 829 830 830 830 830 830 831 831 832 832
802 800 799 798 798 798 796 794 793 793 793 793 794 794 794 794 792 792 791 791 791 790 790 790 790 790 791 792 793 794 795 796 797 799 800 801 802 803 804 805 806 807 808 808 809 810 811 812 812 813 813 813 813 813 813 813 813 812 812 812 812 812 812 813 814 814 816 818 820 820 821 822 824 826 827 828 828 829 829 829 829 830 830 831 831
804 802 801 800 801 802 799 796 795 795 794 795 796 796 796 796 794 794 793 792 792 792 791 791 791 791 792 793 793 794 795 796 797 798 799 800 801 803 803 804 805 806 807 808 809 810 810 811 812 812 812 813 813 813 813 812 812 812 811 811 811 811 812 813 814 815 817 819 821 821 821 822 824 825 826 827 827 827 828 828 828 828 829 829 829
804 804 803 802 803 803 801 799 797 796 797 798 798 798 797 797 796 796 795 794 794 792 792 791 792 792 792 793 794 794 795 796 797 798 799 800 801 802 803 804 805 806 807 807 808 809 810 810 811 811 811 812 812 812 812 812 812 812 811 811 811 812 812 813 814 816 817 819 820 821 821 822 823 824 825 825 826 826 826 826 827 827 828 828 828
806 805 804 804 803 803 802 801 800 799 800 800 799 799 798 797 797 797 797 797 796 794 793 792 792 792 792 793 794 794 795 796 797 798 799 800 801 802 803 804 804 805 806 807 807 808 809 809 809 810 810 811 811 812 812 812 812 812 812 812 812 812 813 814 815 816 817 818 819 820 821 822 822 823 823 824 824 825 825 825 826 826 827 827 826
807 806 806 805 804 804 803 803 802 802 802 802 801 800 798 797 797 798 798 798 798 797 795 793 793 792 792 793 793 794 795 795 796 798 799 800 801 802 803 803 804 804 805 806 807 808 808 808 809 809 809 810 810 811 811 812 812 812 813 813 813 814 814 815 815 816 817 818 819 820 821 821 822 822 822 823 823 824 824 825 825 825 825 825 825
808 808 807 806 805 805 804 805 804 804 804 804 803 803 802 800 798 798 798 798 798 798 796 795 794 794 793 793 794 794 795 795 796 797 798 799 800 801 802 803 803 804 804 805 806 807 808 808 809 809 809 809 809 810 810 811 812 812 813 813 814 815 815 815 816 816 817 817 818 819 820 820 820 821 822 822 823 823 824 824 824 824 824 823 823
809 808 807 806 806 805 805 805 805 805 805 805 805 805 804 802 801 799 798 798 798 797 796 795 795 794 794 794 794 795 795 795 796 797 797 798 799 800 801 802 802 803 803 804 805 807 808 808 808 808 809 809 809 810 810 811 811 812 812 813 814 815 815 815 816 816 817 817 818 818 819 819 820 821 821 822 822 823 823 823 822 822 822 821 821
809 808 807 806 805 805 804 804 804 804 804 804 804 803 802 802 802 801 799 798 797 797 796 795 795 794 794 794 794 795 795 795 796 796 796 797 798 799 800 801 801 802 802 803 804 806 807 807 808 808 809 809 809 810 810 811 812 812 812 813 813 814 815 815 815 816 816 817 817 818 818 819 820 821 821 821 821 821 821 821 820 820 820 820 819
807 806 807 806 805 804 803 803 802 802 801 801 801 800 800 800 799 799 799 798 797 796 795 795 794 793 793 793 794 794 794 795 795 795 796 797 797 798 800 800 800 801 801 802 803 804 806 806 807 808 808 809 810 810 811 812 812 812 813 813 813 814 814 815 815 815 816 816 817 818 818 819 820 820 820 820 820 820 820 819 819 819 819 819 818
805 804 804 804 803 802 801 800 800 800 800 799 798 797 797 797 796 796 796 796 795 795 794 792 792 792 792 792 792 793 793 794 794 794 795 796 797 798 799 800 800 800 800 801 802 803 804 805 806 807 808 809 809 810 811 812 812 812 813 813 813 814 814 814 815 815 816 816 817 818 818 818 819 819 819 819 819 819 819 819 819 819 818 818 817
805 804 803 802 801 800 798 798 797 797 798 797 797 796 795 794 793 793 793 792 792 792 791 790 789 789 789 789 789 790 791 791 792 792 793 794 795 796 797 798 799 799 799 800 800 801 802 804 805 806 807 808 809 810 811 812 812 812 813 813 813 813 814 814 814 815 816 816 817 817 818 818 818 818 818 818 818 818 818 818 818 818 817 817 817
804 803 802 800 798 796 795 794 793 793 794 794 794 793 792 792 791 790 789 789 789 788 787 787 786 785 785 786 786 786 787 788 789 790 791 792 794 795 796 797 797 798 798 799 799 800 801 802 803 805 805 807 808 809 810 811 811 812 813 813 813 814 814 814 815 815 816 816 817 817 817 817 817 817 817 817 817 817 817 817 817 817 816 816 816
802 801 800 799 797 795 793 791 790 789 790 790 790 790 789 788 788 787 787 786 786 785 784 783 782 782 782 782 783 783 784 785 787 788 789 791 792 793 794 795 796 796 797 797 798 799 800 801 802 803 804 805 807 808 809 810 811 812 812 813 813 814 814 815 815 815 816 816 816 816 816 816 817 817 817 817 817 817 817 816 816 816 815 815 814
800 799 798 797 795 793 791 789 787 787 787 787 786 786 785 785 784 784 784 783 783 782 781 780 780 780 780 780 781 781 782 783 784 785 787 788 789 791 792 793 793 794 794 795 796 797 798 800 801 802 803 805 805 806 807 809 810 811 812 812 813 813 814 814 815 815 815 815 815 815 816 816 816 816 817 817 816 816 816 815 815 815 814 814 813
798 797 796 795 793 791 790 787 785 784 784 783 782 781 781 781 781 781 781 780 780 779 779 779 778 778 778 778 779 779 780 780 781 782 784 785 787 788 789 790 790 791 792 793 794 795 797 798 799 800 801 802 804 805 806 808 809 810 811 812 813 813 814 814 814 815 815 815 815 815 815 816 816 816 816 816 815 815 815 814 814 813 812 812 811
796 794 793 792 790 789 787 785 783 781 781 780 778 777 777 777 777 777 777 777 776 776 776 776 776 777 777 777 777 777 777 778 779 780 781 783 784 786 787 788 788 789 790 792 793 794 795 796 797 799 800 801 802 804 806 807 809 810 811 812 812 813 813 814 814 814 814 815 815 815 815 816 816 815 815 815 815 814 814 813 812 812 811 810 809
793 792 790 788 786 785 784 781 779 778 777 776 774 773 773 773 773 773 773 773 773 773 772 772 773 774 775 776 776 776 776 775 776 778 779 780 782 784 785 786 787 788 789 791 792 793 795 796 797 798 800 801 803 804 806 807 808 809 810 811 812 813 813 814 814 814 814 815 815 815 815 815 815 815 815 814 814 813 813 812 811 810 809 809 807